DH8TOM-3 Weather Reports


Display with metric or nautical units.
time (UTC)temp
F
wind
direction
speed
MPH
gust
MPH
rain 1hr
in
rain 24hr
in
rain mn
in
humidity
%
barometer
mb
20260506034033 59 90 1.0 1.0 0.00 0.19 0.08 82 1002.4
20260506033532 59 90 1.0 1.0 0.00 0.19 0.08 82 1002.4
20260506033031 60 90 1.0 1.0 0.00 0.19 0.08 83 1002.5
20260506032530 60 90 1.0 1.0 0.00 0.19 0.08 83 1002.5
20260506032028 59 90 1.0 1.0 0.00 0.18 0.08 82 1002.5
20260506031528 59 90 1.0 1.0 0.00 0.18 0.08 82 1002.5
20260506031027 59 125 1.0 1.0 0.00 0.18 0.08 82 1002.5
20260506030525 59 125 1.0 1.0 0.00 0.18 0.08 82 1002.5
20260506030025 59 125 1.0 1.0 0.00 0.18 0.08 82 1002.5
20260506025525 59 90 1.0 1.0 0.00 0.18 0.08 82 1002.6
20260506025023 59 90 1.0 1.0 0.00 0.18 0.08 82 1002.6
20260506024522 59 90 1.0 1.0 0.00 0.18 0.08 82 1002.7
20260506024020 59 90 1.0 1.0 0.00 0.18 0.08 82 1002.7
20260506023520 60 90 1.0 1.0 0.00 0.18 0.08 82 1002.7
20260506023019 60 90 1.0 1.0 0.00 0.18 0.08 82 1002.7
20260506022518 60 90 1.0 1.0 0.00 0.18 0.08 82 1002.9
20260506022016 60 90 1.0 1.0 0.00 0.18 0.08 82 1002.9
20260506021516 60 90 1.0 2.0 0.00 0.18 0.08 82 1003.0
20260506021014 60 90 1.0 2.0 0.00 0.18 0.08 82 1003.0
20260506020013 60 90 1.0 2.0 0.00 0.18 0.08 82 1003.1
20260506015011 60 90 1.0 1.0 0.00 0.18 0.08 82 1003.2
20260506014009 60 90 1.0 1.0 0.00 0.18 0.08 82 1003.4
20260506013007 60 90 1.0 1.0 0.00 0.18 0.08 82 1003.4
20260506012005 60 90 1.0 2.0 0.00 0.18 0.08 82 1003.5
20260506011003 60 90 1.0 2.0 0.01 0.18 0.08 82 1003.5
20260506010001 60 59 1.0 2.0 0.01 0.18 0.08 82 1003.5
20260506005500 60 135 1.0 2.0 0.01 0.18 0.08 82 1003.6
20260506004959 60 135 1.0 2.0 0.01 0.18 0.08 82 1003.6
20260506004458 60 90 1.0 1.0 0.01 0.18 0.08 82 1003.7
20260506003957 60 90 1.0 1.0 0.01 0.18 0.08 82 1003.7
20260506003455 60 90 1.0 2.0 0.02 0.18 0.08 82 1003.8
20260506002955 60 90 1.0 2.0 0.02 0.18 0.08 82 1003.8
20260506002454 60 90 1.0 1.0 0.01 0.17 0.07 82 1003.9
20260506001954 60 90 1.0 1.0 0.01 0.17 0.07 82 1003.9
20260506001452 60 90 1.0 1.0 0.01 0.17 0.07 82 1004.0
20260506000951 60 90 1.0 1.0 0.01 0.17 0.07 82 1004.0
20260506000449 60 56 1.0 3.0 0.01 0.17 0.07 82 1004.1
20260505235949 60 56 1.0 3.0 0.01 0.17 0.07 82 1004.1
20260505235448 60 135 1.0 1.0 0.01 0.17 0.06 81 1004.2
20260505234947 60 135 1.0 1.0 0.01 0.17 0.06 81 1004.2
20260505234445 61 90 1.0 2.0 0.01 0.17 0.06 80 1004.1
20260505233945 61 90 1.0 2.0 0.01 0.17 0.06 80 1004.1
20260505233444 61 90 1.0 2.0 0.01 0.16 0.06 81 1004.0
20260505232943 61 90 1.0 2.0 0.01 0.16 0.06 81 1004.0
20260505232442 61 90 1.0 1.0 0.01 0.16 0.06 81 1003.9
20260505231941 61 90 1.0 1.0 0.01 0.16 0.06 81 1003.9
20260505231440 61 90 1.0 2.0 0.03 0.16 0.06 81 1004.1
20260505230939 61 90 1.0 2.0 0.03 0.16 0.06 81 1004.1
20260505230438 61 90 1.0 1.0 0.06 0.16 0.06 81 1004.2
20260505225937 61 90 1.0 1.0 0.06 0.16 0.06 81 1004.2
20260505225436 61 146 1.0 1.0 0.08 0.16 0.06 81 1004.3
20260505224935 61 146 1.0 1.0 0.08 0.16 0.06 81 1004.3
20260505224434 61 135 1.0 1.0 0.10 0.16 0.05 79 1004.5
20260505223932 61 135 1.0 1.0 0.10 0.16 0.05 79 1004.5
20260505223432 61 90 1.0 2.0 0.11 0.15 0.05 79 1004.7
20260505222931 61 90 1.0 2.0 0.11 0.15 0.05 79 1004.7
20260505222430 62 90 1.0 1.0 0.13 0.15 0.05 79 1005.0
20260505221928 62 90 1.0 1.0 0.13 0.15 0.05 79 1005.0
20260505221428 62 54 1.0 2.0 0.12 0.13 0.03 79 1005.2
20260505220927 62 54 1.0 2.0 0.12 0.13 0.03 79 1005.2
20260505220427 62 90 1.0 1.0 0.10 0.10 0.00 78 1005.2
20260505215925 62 90 1.0 1.0 0.10 0.10 0.10 78 1005.2
20260505215424 62 45 1.0 3.0 0.08 0.08 0.08 77 1005.4
20260505214922 62 45 1.0 3.0 0.08 0.08 0.08 77 1005.4
20260505214422 63 161 1.0 2.0 0.06 0.06 0.06 76 1005.5
20260505213921 63 161 1.0 2.0 0.06 0.06 0.06 76 1005.5
20260505213419 64 90 1.0 1.0 0.04 0.04 0.04 75 1005.5
20260505212949 64 90 1.0 1.0 0.04 0.04 0.04 75 1005.5
20260505212418 64 164 1.0 1.0 0.02 0.02 0.02 74 1005.7
20260505211917 64 164 1.0 1.0 0.02 0.02 0.02 74 1005.7
20260505211416 64 171 1.0 1.0 0.01 0.01 0.01 72 1005.7
20260505210915 64 171 1.0 1.0 0.01 0.01 0.01 72 1005.7
20260505210414 65 171 1.0 2.0 0.00 0.00 0.00 72 1005.5
20260505205912 65 171 1.0 2.0 0.00 0.00 0.00 72 1005.5
20260505205412 65 156 1.0 1.0 0.00 0.00 0.00 69 1005.4
20260505204911 65 156 1.0 1.0 0.00 0.00 0.00 69 1005.4
20260505204410 65 172 1.0 1.0 0.00 0.00 0.00 68 1005.4
20260505203909 65 172 1.0 1.0 0.00 0.00 0.00 68 1005.4
20260505203408 65 168 1.0 1.0 0.00 0.00 0.00 67 1005.3
20260505202907 65 168 1.0 1.0 0.00 0.00 0.00 67 1005.3
20260505202406 65 169 1.0 2.0 0.00 0.00 0.00 67 1004.9
20260505201906 65 169 1.0 2.0 0.00 0.00 0.00 67 1004.9
20260505201404 65 168 1.0 1.0 0.00 0.00 0.00 67 1004.7
20260505200903 65 168 1.0 1.0 0.00 0.00 0.00 67 1004.7
20260505200402 65 176 1.0 2.0 0.00 0.00 0.00 66 1004.6
20260505195901 65 176 1.0 2.0 0.00 0.00 0.00 66 1004.6
20260505195400 65 173 1.0 1.0 0.00 0.00 0.00 66 1004.2
20260505194859 65 173 1.0 1.0 0.00 0.00 0.00 66 1004.2
20260505194358 66 163 1.0 2.0 0.00 0.00 0.00 66 1004.4
20260505193857 66 163 1.0 2.0 0.00 0.00 0.00 66 1004.4
20260505193356 66 167 1.0 2.0 0.00 0.00 0.00 66 1004.6
20260505192854 66 167 1.0 2.0 0.00 0.00 0.00 66 1004.6
20260505192354 66 163 1.0 2.0 0.00 0.00 0.00 66 1004.7
20260505191853 66 163 1.0 2.0 0.00 0.00 0.00 66 1004.7
20260505191352 66 161 1.0 1.0 0.00 0.00 0.00 67 1004.7
20260505190851 66 161 1.0 1.0 0.00 0.00 0.00 67 1004.7
20260505190351 66 166 1.0 2.0 0.00 0.00 0.00 67 1004.8
20260505185849 66 166 1.0 2.0 0.00 0.00 0.00 67 1004.8
20260505185348 67 174 1.0 2.0 0.00 0.00 0.00 66 1004.9
20260505184847 67 174 1.0 2.0 0.00 0.00 0.00 66 1004.9
20260505184345 67 167 1.0 1.0 0.00 0.00 0.00 65 1004.9
20260505183845 67 167 1.0 1.0 0.00 0.00 0.00 65 1004.9
20260505183344 67 173 1.0 1.0 0.00 0.00 0.00 65 1004.9
20260505182843 67 173 1.0 1.0 0.00 0.00 0.00 65 1004.9
20260505182341 67 174 1.0 2.0 0.00 0.00 0.00 63 1005.0
20260505181841 67 174 1.0 2.0 0.00 0.00 0.00 63 1005.0
20260505181340 68 169 1.0 2.0 0.00 0.00 0.00 63 1005.0
20260505180840 68 169 1.0 2.0 0.00 0.00 0.00 63 1005.0
20260505180339 68 180 1.0 1.0 0.00 0.00 0.00 63 1005.1
20260505175837 68 180 1.0 1.0 0.00 0.00 0.00 63 1005.1
20260505175336 68 176 1.0 1.0 0.00 0.00 0.00 62 1005.1
20260505174835 68 176 1.0 1.0 0.00 0.00 0.00 62 1005.1
20260505174334 69 176 1.0 2.0 0.00 0.00 0.00 62 1005.1
20260505173833 69 176 1.0 2.0 0.00 0.00 0.00 62 1005.1
20260505173331 69 180 1.0 1.0 0.00 0.00 0.00 61 1005.2
20260505172832 69 180 1.0 1.0 0.00 0.00 0.00 61 1005.2
20260505172331 69 182 1.0 2.0 0.00 0.00 0.00 61 1005.2
20260505171829 69 182 1.0 2.0 0.00 0.00 0.00 61 1005.2
20260505171327 70 188 1.0 2.0 0.00 0.00 0.00 61 1005.3
20260505170828 70 188 1.0 2.0 0.00 0.00 0.00 61 1005.3
20260505170326 70 191 1.0 2.0 0.00 0.00 0.00 60 1005.4
20260505165825 70 191 1.0 2.0 0.00 0.00 0.00 60 1005.4
20260505165323 70 191 1.0 2.0 0.00 0.00 0.00 61 1005.3
20260505164823 70 191 1.0 2.0 0.00 0.00 0.00 61 1005.3
20260505164323 71 188 1.0 2.0 0.00 0.00 0.00 60 1005.3
20260505163821 71 188 1.0 2.0 0.00 0.00 0.00 60 1005.3
20260505163320 71 190 1.0 1.0 0.00 0.00 0.00 59 1005.4
20260505162818 71 190 1.0 1.0 0.00 0.00 0.00 59 1005.4
20260505162318 71 191 1.0 2.0 0.00 0.00 0.00 59 1005.5
20260505161817 71 191 1.0 2.0 0.00 0.00 0.00 59 1005.5
20260505161316 71 196 1.0 3.0 0.00 0.00 0.00 59 1005.5
20260505160815 71 196 1.0 3.0 0.00 0.00 0.00 59 1005.5
20260505160314 71 191 1.0 2.0 0.00 0.00 0.00 59 1005.7
20260505153308 72 198 1.0 2.0 0.00 0.00 0.00 59 1006.0
20260505152806 72 198 1.0 2.0 0.00 0.00 0.00 59 1006.0
20260505152305 72 194 1.0 2.0 0.00 0.00 0.00 59 1006.0
20260505151805 72 194 1.0 2.0 0.00 0.00 0.00 59 1006.0
20260505151304 72 188 1.0 2.0 0.00 0.00 0.00 59 1006.2
20260505150803 72 188 1.0 2.0 0.00 0.00 0.00 59 1006.2
20260505150302 72 188 1.0 2.0 0.00 0.00 0.00 59 1006.3
20260505140250 72 191 1.0 3.0 0.00 0.00 0.00 60 1006.7
20260505130239 71 193 1.0 2.0 0.00 0.00 0.00 62 1007.0
20260505124735 70 196 1.0 1.0 0.00 0.00 0.00 64 1007.3
20260505124234 70 196 1.0 1.0 0.00 0.00 0.00 64 1007.3
20260505123733 70 200 1.0 2.0 0.00 0.00 0.00 65 1007.3
20260505123232 70 200 1.0 2.0 0.00 0.00 0.00 65 1007.3
20260505122731 70 188 1.0 2.0 0.00 0.00 0.00 65 1007.4
20260505122230 70 188 1.0 2.0 0.00 0.00 0.00 65 1007.4
20260505121729 69 188 1.0 2.0 0.00 0.00 0.00 65 1007.5
20260505121228 69 188 1.0 2.0 0.00 0.00 0.00 65 1007.5
20260505120727 69 201 1.0 1.0 0.00 0.00 0.00 66 1007.6
20260505120226 69 201 1.0 1.0 0.00 0.00 0.00 66 1007.6
20260505115725 69 185 1.0 2.0 0.00 0.00 0.00 68 1007.6
20260505115223 69 185 1.0 2.0 0.00 0.00 0.00 68 1007.6
20260505114723 68 180 1.0 2.0 0.00 0.00 0.00 68 1007.6
20260505114222 68 180 1.0 2.0 0.00 0.00 0.00 68 1007.6
20260505113720 68 176 1.0 1.0 0.00 0.00 0.00 69 1007.6
20260505113220 68 176 1.0 1.0 0.00 0.00 0.00 69 1007.6
20260505112719 68 177 1.0 2.0 0.00 0.00 0.00 69 1007.7
20260505112218 68 177 1.0 2.0 0.00 0.00 0.00 69 1007.7
20260505111716 67 180 1.0 2.0 0.00 0.00 0.00 69 1007.9
20260505111216 67 180 1.0 2.0 0.00 0.00 0.00 69 1007.9
20260505110716 67 173 1.0 1.0 0.00 0.00 0.00 70 1007.9
20260505110214 67 173 1.0 1.0 0.00 0.00 0.00 70 1007.9
20260505102207 66 165 1.0 2.0 0.00 0.00 0.00 72 1008.5
20260505101705 66 171 1.0 1.0 0.00 0.00 0.00 72 1008.4
20260505101204 66 171 1.0 1.0 0.00 0.00 0.00 72 1008.4
20260505100713 66 165 1.0 2.0 0.00 0.00 0.00 73 1008.4
20260505100203 66 165 1.0 2.0 0.00 0.00 0.00 73 1008.4
20260505095701 66 167 1.0 1.0 0.00 0.00 0.00 74 1008.4
20260505095200 66 167 1.0 1.0 0.00 0.00 0.00 74 1008.4
20260505094659 65 166 1.0 1.0 0.00 0.00 0.00 74 1008.6
20260505094158 65 166 1.0 1.0 0.00 0.00 0.00 74 1008.6
20260505093656 65 171 1.0 2.0 0.00 0.00 0.00 75 1008.6
20260505093156 65 171 1.0 2.0 0.00 0.00 0.00 75 1008.6
20260505092655 64 163 1.0 2.0 0.00 0.00 0.00 75 1008.5
20260505092155 64 163 1.0 2.0 0.00 0.00 0.00 75 1008.5
20260505091653 64 165 1.0 2.0 0.00 0.00 0.00 75 1008.5
20260505091152 64 165 1.0 2.0 0.00 0.00 0.00 75 1008.5
20260505090651 64 161 1.0 2.0 0.00 0.00 0.00 75 1008.5
20260505090150 64 161 1.0 2.0 0.00 0.00 0.00 75 1008.5
20260505085649 65 159 1.0 1.0 0.00 0.00 0.00 75 1008.6
20260505085148 65 159 1.0 1.0 0.00 0.00 0.00 75 1008.6
20260505084647 65 154 1.0 1.0 0.00 0.00 0.00 75 1008.4
20260505084146 65 154 1.0 1.0 0.00 0.00 0.00 75 1008.4
20260505083645 65 171 1.0 1.0 0.00 0.00 0.00 74 1008.3
20260505083144 65 171 1.0 1.0 0.00 0.00 0.00 74 1008.3
20260505082642 64 164 1.0 2.0 0.00 0.00 0.00 74 1008.3
20260505082142 64 164 1.0 2.0 0.00 0.00 0.00 74 1008.3
20260505081641 64 167 1.0 2.0 0.00 0.00 0.00 76 1008.2
20260505081140 64 167 1.0 2.0 0.00 0.00 0.00 76 1008.2
20260505080639 63 171 1.0 1.0 0.00 0.00 0.00 78 1008.2
20260505080139 63 171 1.0 1.0 0.00 0.00 0.00 78 1008.2
20260505075638 63 125 1.0 1.0 0.00 0.00 0.00 79 1008.2
20260505075136 63 125 1.0 1.0 0.00 0.00 0.00 79 1008.2
20260505074635 62 90 1.0 1.0 0.00 0.00 0.00 79 1008.4
20260505074134 62 90 1.0 1.0 0.00 0.00 0.00 79 1008.4
20260505073634 62 90 1.0 1.0 0.00 0.00 0.00 79 1008.4
20260505073133 62 90 1.0 1.0 0.00 0.00 0.00 79 1008.4
20260505072631 62 90 1.0 1.0 0.00 0.00 0.00 79 1008.4
20260505072130 62 90 1.0 1.0 0.00 0.00 0.00 79 1008.4
20260505071630 62 90 1.0 1.0 0.00 0.00 0.00 79 1008.5
20260505071128 62 90 1.0 1.0 0.00 0.00 0.00 79 1008.5
20260505070626 62 90 1.0 1.0 0.00 0.00 0.00 79 1008.5
20260505070127 62 90 1.0 1.0 0.00 0.00 0.00 79 1008.5
20260505065625 62 90 1.0 1.0 0.00 0.00 0.00 79 1008.5
20260505065125 62 90 1.0 1.0 0.00 0.00 0.00 79 1008.5
20260505064623 61 90 1.0 1.0 0.00 0.00 0.00 79 1008.6
20260505064122 61 90 1.0 1.0 0.00 0.00 0.00 79 1008.6
20260505063620 61 90 1.0 1.0 0.00 0.00 0.00 79 1008.7
20260505063121 61 90 1.0 1.0 0.00 0.00 0.00 79 1008.7
20260505062619 61 90 1.0 2.0 0.00 0.00 0.00 80 1008.8
20260505062118 61 90 1.0 2.0 0.00 0.00 0.00 80 1008.8
20260505061616 60 90 1.0 1.0 0.00 0.00 0.00 80 1008.9
20260505061116 60 90 1.0 1.0 0.00 0.00 0.00 80 1008.9
20260505060616 60 90 1.0 2.0 0.00 0.00 0.00 80 1008.9
20260505060114 60 90 1.0 2.0 0.00 0.00 0.00 80 1008.9
20260505055612 61 90 1.0 1.0 0.00 0.00 0.00 79 1008.9
20260505055111 61 90 1.0 1.0 0.00 0.00 0.00 79 1008.9
20260505054612 61 90 1.0 1.0 0.00 0.00 0.00 79 1008.8
20260505054111 61 90 1.0 1.0 0.00 0.00 0.00 79 1008.8
20260505053609 61 90 1.0 1.0 0.00 0.00 0.00 79 1008.8
20260505053108 61 90 1.0 1.0 0.00 0.00 0.00 79 1008.8
20260505052607 61 90 1.0 1.0 0.00 0.00 0.00 79 1008.9
20260505052105 61 90 1.0 1.0 0.00 0.00 0.00 79 1008.9
20260505051605 61 90 1.0 1.0 0.00 0.00 0.00 79 1008.8
20260505051104 61 90 1.0 1.0 0.00 0.00 0.00 79 1008.8
20260505050603 61 90 1.0 1.0 0.00 0.00 0.00 79 1008.7
20260505041553 61 135 1.0 1.0 0.00 0.00 0.00 78 1009.1
20260505041052 61 135 1.0 2.0 0.00 0.00 0.00 78 1009.1
20260505040550 61 135 1.0 2.0 0.00 0.00 0.00 78 1009.1
20260505040051 61 135 1.0 2.0 0.00 0.00 0.00 78 1009.1
20260505035549 62 126 1.0 1.0 0.00 0.00 0.00 78 1009.1
20260505035048 62 126 1.0 1.0 0.00 0.00 0.00 78 1009.1
20260505034546 62 90 1.0 1.0 0.00 0.00 0.00 77 1009.1